Погода в Татарских Суксах

Россия / Республика Татарстан     55°45′08″N   53°39′36″E
темп.,
°C
ветер,
м/с
пор.,
м/с
влажн.,
%
обл.,
%
осадки,
мм/ч
давл.,
гПа
погр.,
м
10 августа, ср
ср1000:00+19ссз1176100 0.0 101811
03:00+18с1184100 0.5 101812
06:00+20вюв2380100 0.0 1018100
09:00+24зсз116491 0.0 1018454
12:00+28сз115016 0.0 10171290
15:00+29юз234668 0.0 10171926
18:00+23ссз476752 0.0 1017180
21:00+18з3787100 0.9 1017144
11 августа, чт
чт1100:00+18зсз349499 0.0 101864
03:00+17зсз3696100 0.0 1018183
06:00+16сз578830 0.0 1020464
09:00+18ссз5662100 0.0 1022695
12:00+21сз5649100 0.0 10221258
15:00+22сз5647100 0.0 10211489
18:00+19сз3561100 0.0 1022115
21:00+14ссв22730 0.0 102312
12 августа, пт
пт1200:00+13з11750 0.0 102310
03:00+12з22750 0.0 102315
06:00+15зюз356973 0.0 1024141
09:00+21з5654100 0.0 1023777
12:00+23зсз674458 0.0 10222163
15:00+24з574329 0.0 10212097
18:00+21з37625 0.0 1020173
21:00+17з47705 0.0 1021108
13 августа, сб
сб1300:00+15з36762 0.0 102095
03:00+14зюз48780 0.0 1020142
06:00+17з49710 0.0 1020271
09:00+22зсз57580 0.0 1020741
12:00+25сз674710 0.0 10201944
15:00+25ссз67418 0.0 10201983
18:00+20с48545 0.0 1021213
21:00+15с336068 0.0 102237
14 августа, вс
вс1400:00+13с226494 0.0 102311
03:00+12с11680 0.0 102310
06:00+14с12622 0.0 102494
09:00+20с23460 0.0 1024744
12:00+22с34380 0.0 10231806
15:00+23с33375 0.0 10231905
18:00+20с115357 0.0 102211
21:00+16ссв115896 0.0 102211